Mankato, MN

8:00 AM CST on December 13, 2019 (GMT -0600)
Mankato Regional

Weather History for KMKT - May, 2019

Change the Weather History Date:

Friday, May 3, 2019

  Actual Average Record
Temperature  
Mean Temperature 50 °F -  
Max Temperature 63 °F 63 °F 82 °F (2015)
Min Temperature 37 °F 43 °F 28 °F (2005)
Degree Days  
Heating Degree Days 15    
Moisture  
Dew Point 41 °F    
Average Humidity 74    
Maximum Humidity 100    
Minimum Humidity 44    
Precipitation  
Precipitation 0.02 in - - ()
Sea Level Pressure  
Sea Level Pressure 30.06 in    
Wind  
Wind Speed 6 mph (South)    
Max Wind Speed 18 mph    
Max Gust Speed 28 mph    
Visibility 10 miles    
Events Rain    
Averages and records for this station are not official NWS values.
T = Trace of Precipitation, MM = Missing Value Source: NWS Daily Summary

Daily Weather History Graph

Daily Weather History Graph

Search for Another Location

Airport or City:

Astronomy

May. 03, 2019 Rise Set
Actual Time 6:04 AM CDT 8:21 PM CDT
Civil Twilight 5:32 AM CDT 8:53 PM CDT
Nautical Twilight 4:52 AM CDT 9:33 PM CDT
Astronomical Twilight 4:08 AM CDT 10:18 PM CDT
Moon 5:52 AM CDT (5/3) 7:04 PM CDT (5/3)
Length of Visible Light 15h 21m
Length of Day
14h 17m
Waning Crescent, 2% of the Moon is Illuminated
May 3
Waning Crescent
May 4
New
May 11
First Quarter
May 18
Full
May 26
Last Quarter

Hourly Weather History & Observations

Time (CDT) Temp. Windchill Dew Point Humidity Pressure Visibility Wind Dir Wind Speed Gust Speed Precip Events Conditions
12:56 AM 42.1 °F - 37.0 °F 82% 30.16 in 10.0 mi Calm Calm - N/A   Clear
1:56 AM 39.9 °F - 39.0 °F 97% 30.15 in 10.0 mi Calm Calm - N/A   Clear
2:56 AM 39.0 °F - 39.0 °F 100% 30.14 in 10.0 mi Calm Calm - N/A   Clear
3:56 AM 37.9 °F 34.4 °F 37.0 °F 97% 30.15 in 10.0 mi East 4.6 mph - N/A   Clear
4:56 AM 39.0 °F 36.8 °F 37.9 °F 96% 30.14 in 10.0 mi ESE 3.5 mph - N/A   Clear
5:56 AM 37.9 °F 33.5 °F 35.1 °F 89% 30.12 in 10.0 mi ESE 5.8 mph - N/A   Clear
6:56 AM 39.0 °F 33.4 °F 35.1 °F 86% 30.13 in 10.0 mi SE 8.1 mph - N/A   Clear
7:56 AM 43.0 °F 38.8 °F 37.0 °F 80% 30.13 in 10.0 mi ESE 6.9 mph - N/A   Scattered Clouds
8:56 AM 46.9 °F - 39.0 °F 74% 30.12 in 10.0 mi South 6.9 mph - N/A   Clear
9:56 AM 48.9 °F - 39.9 °F 71% 30.12 in 10.0 mi South 9.2 mph - N/A   Partly Cloudy
10:56 AM 51.1 °F - 41.0 °F 68% 30.12 in 10.0 mi South 11.5 mph - N/A   Clear
11:56 AM 53.1 °F - 37.9 °F 57% 30.11 in 10.0 mi South 10.4 mph - N/A   Overcast
12:56 PM 55.9 °F - 39.0 °F 53% 30.09 in 10.0 mi South 13.8 mph 20.7 mph N/A   Scattered Clouds
1:56 PM 57.9 °F - 39.9 °F 51% 30.07 in 10.0 mi SSE 16.1 mph 24.2 mph N/A   Clear
2:56 PM 60.1 °F - 41.0 °F 49% 30.04 in 10.0 mi South 18.4 mph 27.6 mph N/A   Partly Cloudy
3:56 PM 61.0 °F - 41.0 °F 48% 30.00 in 10.0 mi South 15.0 mph - N/A   Clear
4:56 PM 62.1 °F - 39.9 °F 44% 29.96 in 10.0 mi South 18.4 mph 24.2 mph N/A   Clear
5:56 PM 63.0 °F - 41.0 °F 45% 29.95 in 10.0 mi South 16.1 mph 21.9 mph N/A   Mostly Cloudy
6:56 PM 61.0 °F - 41.0 °F 48% 29.96 in 10.0 mi SSW 16.1 mph 21.9 mph N/A   Overcast
7:08 PM 55.4 °F - 48.2 °F 77% 29.95 in 10.0 mi WNW 13.8 mph - 0.00 in Rain Light Rain
7:56 PM 54.0 °F - 50.0 °F 86% 29.98 in 10.0 mi SSW 4.6 mph - 0.01 in Rain Light Rain
8:56 PM 53.1 °F - 50.0 °F 89% 30.01 in 10.0 mi West 5.8 mph - 0.01 in Rain Light Rain
9:56 PM 53.1 °F - 48.0 °F 83% 30.01 in 10.0 mi SSW 9.2 mph - 0.00 in   Overcast
10:56 PM 52.0 °F - 46.9 °F 83% 30.00 in 10.0 mi SSW 8.1 mph - N/A   Mostly Cloudy
11:56 PM 50.0 °F - 46.0 °F 86% 29.99 in 10.0 mi SSW 3.5 mph - N/A   Clear